Location: Wald
(31.7579°N, 86.6655°W)
Time: 12:23:17
(UTC+00:00)

Cosmos 1455 - Pass Details

Date: 14 July 2020
Orbit: 500 x 521 km, 82.5° (Epoch: 08 August)

Event Time Altitude Azimuth Distance (km) Brightness Sun altitude
Rises 01:53:05 0° 349° (N) 2,649 6.6 -11.7°
Reaches altitude 10° 01:55:15 10° 346° (NNW) 1,759 5.7 -12.1°
Maximum altitude 01:59:03 61° 266° (W) 596 2.7 -12.7°
Drops below altitude 10° 02:02:50 10° 186° (S) 1,748 4.6 -13.4°
Enters shadow 02:03:41 - 184° (S) 2,096 5.0 -13.5°
